Temperature
27 28 28 29 29 29 29 29 28 28 28 27 27 26 25 23 22 22 21 20 19 18 17 17 17 17 17 17 17 17 17 17 17 16 16 16 16 16 16 16 16 16 15 15
28 28 29 29 29 28 28 28 28 28 27 27 26 26 26 24 23 22 21 20 19 18 17 17 17 17 17 16 17 17 17 17 17 16 16 16 16 16 15 15 16 15 15 15
28 29 29 28 28 28 28 28 28 28 27 27 26 26 25 24 23 22 21 20 20 19 18 17 17 17 17 16 16 16 16 17 16 16 16 16 16 16 15 15 15 15 15 15
28 29 28 28 28 28 28 29 28 27 27 27 27 26 26 25 24 23 22 21 20 19 18 18 17 17 17 17 17 16 17 17 17 16 16 16 16 16 15 15 15 15 15 15
28 29 28 28 28 28 28 28 28 27 27 27 27 27 27 26 25 24 23 22 21 20 19 18 18 17 17 17 17 17 17 17 17 16 16 16 16 16 15 15 15 15 15 14
29 29 29 29 28 28 27 27 27 27 27 26 27 27 27 27 26 25 24 22 21 20 19 19 18 17 17 17 17 16 16 17 17 16 16 16 15 15 15 15 15 15 14 14
28 29 29 28 28 27 27 27 27 26 26 27 27 26 27 28 27 26 25 23 22 20 19 19 18 17 17 17 16 16 16 17 16 16 16 16 15 15 15 15 15 14 14 14
27 28 29 29 29 28 28 28 27 26 26 27 26 27 28 27 26 25 24 23 22 21 20 19 18 18 17 17 17 16 16 16 16 16 16 16 16 15 15 15 15 14 14 14
28 28 29 29 29 29 28 28 29 28 27 27 28 28 27 26 26 25 24 23 22 22 21 20 19 18 18 17 17 17 17 17 16 16 16 16 15 15 15 15 15 14 14 14
28 27 28 28 28 27 29 29 28 27 26 26 27 27 28 26 26 26 25 24 23 22 21 20 19 19 18 18 17 17 17 17 16 16 16 16 15 15 15 15 14 14 14 14
28 27 28 27 27 28 27 27 28 28 27 26 26 28 29 28 27 26 26 24 23 23 22 21 20 19 19 18 18 17 17 17 16 16 16 15 15 15 15 14 14 14 14 13
27 27 27 28 28 28 28 28 28 27 26 27 27 28 29 28 28 27 26 25 24 23 22 22 21 20 19 19 18 18 17 17 17 16 16 16 15 15 15 14 14 14 14 13
26 26 26 26 26 26 27 28 28 28 27 27 27 28 28 28 28 27 26 25 24 23 23 22 21 20 19 19 18 18 17 17 17 16 16 16 16 15 15 15 14 14 14 13
25 25 26 26 27 27 27 27 27 27 27 27 27 28 28 28 27 27 26 25 24 23 22 22 21 20 20 19 19 18 18 18 17 17 17 16 16 16 15 15 14 14 14 14
24 25 26 27 28 27 27 27 27 27 27 28 28 28 29 28 28 27 26 25 24 23 23 22 21 21 20 19 19 19 18 18 18 17 17 17 16 16 15 15 15 14 14 14
23 23 25 25 26 27 27 27 27 27 27 28 28 28 29 28 27 26 26 25 25 24 23 22 22 21 20 20 19 19 19 18 18 18 17 17 16 16 16 15 15 15 14 14
23 23 23 24 26 26 25 27 27 27 28 28 27 28 28 27 27 26 25 25 25 24 24 23 22 21 21 20 20 19 19 19 18 18 17 17 17 16 16 15 15 15 15 14
22 22 23 24 24 23 26 28 28 27 28 28 28 28 27 27 25 25 24 24 24 24 24 23 22 22 21 21 20 20 19 19 19 18 17 17 17 16 16 16 15 15 15 15
21 21 22 23 23 25 26 26 27 26 26 27 27 27 26 25 25 24 23 23 23 23 23 23 22 22 21 21 20 20 19 19 19 18 18 17 17 16 16 16 16 15 15 15
20 21 22 23 23 23 25 26 25 25 25 25 25 25 25 25 26 26 22 21 22 22 22 22 22 21 21 20 20 20 19 19 19 18 18 17 17 17 16 16 16 15 15 15
20 20 21 22 23 24 25 24 24 24 23 23 23 23 23 24 23 21 21 20 20 21 21 21 21 21 21 20 20 19 19 19 19 18 17 17 17 17 16 16 16 15 15 15
21 22 21 22 22 23 23 24 24 22 21 22 22 22 22 21 20 20 20 19 19 20 20 20 20 20 20 20 20 19 18 18 18 17 17 17 17 16 16 16 16 15 15 14
21 21 22 22 22 21 21 21 20 20 20 21 21 20 20 20 20 19 19 18 19 19 19 19 20 20 19 19 19 18 18 17 17 17 17 16 16 16 15 15 15 15 14 14
21 20 20 21 22 21 20 20 20 19 19 19 19 19 19 19 19 18 18 17 17 18 18 18 19 18 18 18 18 17 17 17 17 16 16 16 16 15 15 15 14 14 14 14
21 20 20 20 21 21 20 19 19 18 19 19 19 19 18 18 18 18 17 17 17 16 17 17 17 17 17 17 17 16 16 16 16 16 16 15 15 14 14 14 14 13 13 13
20 20 20 20 20 20 19 18 18 18 18 18 18 17 17 17 17 16 16 16 16 16 16 16 16 16 16 16 16 16 16 16 15 15 15 15 14 14 13 13 13 13 13 13
Wind_Speed
9 10 10 7 8 8 7 8 7 3 2 5 6 5 5 6 6 7 8 8 9 8 8 9 10 10 10 9 9 9 9 9 8 7 7 7 7 6 5 5 6 5 5 5
9 13 10 6 6 8 9 9 7 2 3 4 5 5 5 7 8 8 8 9 10 10 10 10 10 10 10 10 9 10 9 9 9 7 6 5 6 6 5 5 6 6 5 4
15 6 5 7 8 9 10 9 7 4 3 6 5 6 8 8 8 8 9 9 10 12 13 12 11 11 11 11 11 9 9 9 8 8 7 7 6 6 6 6 5 5 5 4
13 10 7 9 9 9 9 4 5 5 7 4 5 6 5 9 10 11 11 10 11 12 13 13 13 12 11 12 11 10 9 9 8 8 8 9 7 6 6 6 5 5 5 4
10 9 10 10 7 7 4 2 5 6 8 7 6 7 2 8 10 12 13 13 13 14 14 14 13 13 12 12 11 11 10 9 8 8 8 8 7 6 6 6 7 5 5 4
13 7 8 7 4 4 5 4 4 6 8 8 4 7 3 5 9 11 15 15 14 14 14 14 13 13 12 12 12 11 11 10 9 8 8 7 7 7 7 7 7 6 5 4
14 13 10 7 7 7 9 8 6 6 6 4 1 5 4 2 6 9 14 17 16 16 15 15 15 15 14 14 13 12 12 11 10 9 9 8 8 8 8 7 6 5 5 4
13 12 12 10 11 8 10 10 7 6 5 3 3 4 1 4 6 8 11 15 17 17 16 16 17 16 15 15 15 14 13 12 11 10 9 8 8 7 6 6 5 5 4 4
10 9 7 8 8 8 8 9 7 8 8 7 3 2 3 6 8 10 13 16 18 18 18 17 17 17 16 16 16 15 14 13 12 11 10 9 8 6 6 7 6 5 4 5
10 9 8 7 7 7 8 6 6 7 6 7 4 4 2 9 12 13 15 17 18 18 18 18 17 17 16 16 16 16 15 13 12 12 10 9 9 8 8 7 6 5 5 4
12 11 9 9 11 12 9 9 9 7 7 8 6 2 2 5 11 15 17 17 18 19 18 18 17 17 17 16 16 15 15 14 13 12 11 10 10 10 9 8 8 7 6 6
10 9 11 12 5 6 11 11 11 9 8 8 8 3 5 4 9 13 15 17 18 18 18 18 18 18 17 17 17 16 15 15 14 13 12 11 11 10 10 9 9 8 7 7
6 7 11 10 8 8 10 12 12 11 9 9 10 3 7 6 8 11 14 16 17 18 18 18 18 18 18 18 17 17 16 16 15 14 13 12 12 11 11 10 9 9 8 8
4 8 13 13 8 8 10 12 13 12 11 11 11 8 5 7 9 11 14 16 17 18 18 18 18 18 18 17 17 17 17 16 15 14 14 13 13 12 11 10 10 10 9 9
5 10 13 14 11 10 11 12 14 15 15 14 11 9 7 6 9 11 14 16 18 19 19 20 19 18 18 18 17 17 16 16 15 15 14 14 13 12 11 11 11 10 10 10
4 7 11 13 12 12 14 14 14 15 15 15 14 12 6 4 7 10 13 16 18 19 21 21 20 19 19 19 18 18 17 16 16 15 15 14 13 13 12 12 11 11 11 10
5 6 9 12 10 10 14 15 16 15 14 13 14 10 5 5 7 9 12 15 17 19 20 21 21 20 19 19 18 18 17 16 16 15 15 14 14 13 13 13 12 12 11 11
7 8 7 9 8 12 7 4 9 12 12 11 11 8 5 5 5 6 8 11 14 16 17 19 19 19 18 18 18 17 16 16 16 15 15 14 14 14 13 13 12 12 11 10
9 8 7 8 11 11 6 4 5 8 8 7 8 7 4 3 5 6 5 7 11 13 14 14 16 17 17 17 17 17 16 16 16 16 15 14 14 13 13 13 12 11 11 10
8 8 8 9 10 9 3 2 1 4 6 1 2 3 2 4 7 3 2 3 6 9 10 12 13 13 14 15 16 16 16 16 15 15 14 13 12 12 12 12 11 10 10 10
7 7 11 12 11 7 2 2 4 6 0 4 2 1 1 2 2 2 1 2 4 6 8 10 11 11 11 13 14 14 14 14 13 12 12 11 11 11 11 10 9 9 9 9
6 6 8 8 9 5 3 1 1 3 4 3 3 2 2 2 2 3 4 4 5 7 9 10 10 10 10 11 12 12 11 11 11 11 11 11 10 9 9 9 8 8 8 9
4 3 3 3 1 3 3 3 3 3 3 2 2 2 2 3 4 5 5 5 6 7 8 9 10 10 9 9 10 10 9 9 10 10 9 9 9 8 7 8 8 8 8 8
2 1 3 4 2 2 3 3 2 2 2 1 2 2 3 4 5 6 6 6 7 7 8 9 10 11 9 9 8 8 8 9 10 9 8 7 7 7 7 6 6 7 7 7
3 2 4 5 3 2 2 4 3 3 3 3 4 4 5 6 6 7 7 7 7 7 8 8 9 9 10 9 8 8 8 8 9 8 8 7 6 5 4 5 4 6 6 5
3 4 5 4 3 4 3 2 3 4 4 5 6 7 7 7 7 8 8 8 8 8 9 9 10 10 10 10 9 7 7 7 7 6 6 5 4 4 4 4 5 7 8 5
Wind_Direction
204 229 232 235 246 277 283 281 285 284 209 235 245 237 190 176 183 179 171 169 168 159 155 155 156 158 157 157 159 160 158 157 158 156 158 159 156 155 148 140 133 141 140 137
215 231 239 256 255 254 256 267 273 239 186 238 248 242 199 187 193 186 179 177 175 164 160 158 159 164 163 162 162 159 161 163 165 157 154 159 150 154 143 134 131 142 142 150
228 231 217 238 243 247 253 262 272 267 220 222 246 233 199 191 193 189 188 185 177 172 166 163 164 168 165 166 167 164 162 161 162 156 153 149 147 156 152 149 148 146 149 150
237 241 237 244 248 253 260 254 261 244 243 250 241 278 200 190 192 193 191 187 178 174 170 168 167 167 167 166 163 160 158 158 157 164 166 167 170 165 158 162 147 147 150 150
223 224 233 247 253 251 264 236 238 243 256 270 235 270 222 181 203 197 191 187 182 177 175 171 169 166 165 164 163 161 161 161 160 164 164 173 170 159 155 155 144 156 147 156
244 234 246 247 237 226 176 184 206 229 248 257 259 266 270 198 213 196 186 183 180 176 173 171 167 164 165 167 166 163 163 163 163 168 169 178 164 159 159 165 161 173 163 161
232 231 221 220 213 194 209 230 238 232 233 262 168 258 282 190 191 191 183 181 179 176 173 172 170 172 173 173 171 167 166 167 170 172 173 173 168 168 172 176 173 182 174 167
226 225 210 212 225 225 220 240 263 283 290 297 188 258 286 142 170 179 179 177 176 177 177 177 178 178 178 177 175 174 172 171 173 174 172 171 172 180 173 177 176 178 179 156
232 228 190 206 222 232 220 235 264 272 278 281 258 238 203 172 180 178 176 176 178 180 179 180 181 181 181 180 179 179 176 176 177 175 172 173 179 180 163 164 181 172 162 158
244 245 209 189 199 220 249 236 227 253 274 275 269 259 241 182 188 184 181 181 181 181 181 182 183 183 184 182 181 181 181 180 179 178 180 176 177 174 170 178 172 166 167 164
233 239 220 200 220 220 202 218 239 253 268 278 286 302 78 186 189 186 185 183 181 182 183 183 184 184 184 183 182 183 184 183 183 185 183 180 180 177 178 180 179 179 181 182
222 237 241 227 223 267 234 235 230 245 247 254 278 290 111 170 183 186 185 183 182 183 182 182 181 181 183 185 185 185 187 188 187 185 184 186 184 183 185 186 186 185 188 195
203 228 235 223 212 212 227 230 234 243 255 253 261 249 128 157 177 184 184 182 182 183 183 182 182 183 186 187 189 189 190 191 189 186 188 188 188 189 193 190 188 191 195 200
232 235 245 250 250 217 218 223 223 227 241 248 251 261 192 186 188 188 187 184 184 185 186 185 185 188 189 190 190 191 192 191 189 189 191 191 193 193 194 194 192 196 200 204
232 242 248 259 264 256 246 238 225 229 245 259 261 259 255 218 207 197 193 189 188 188 190 190 190 190 190 190 191 193 193 191 189 191 194 194 194 193 195 195 197 200 205 209
228 252 253 252 250 250 251 246 237 236 245 253 261 264 264 239 214 201 195 196 195 195 195 194 193 192 192 192 193 193 193 190 189 193 195 193 193 193 195 198 201 204 208 213
224 234 247 248 249 249 246 239 237 237 239 247 254 256 248 228 217 211 202 201 202 200 198 197 196 196 195 194 193 193 191 188 189 193 194 192 194 196 198 202 203 207 210 214
236 236 242 248 239 243 247 246 244 244 248 248 254 262 252 251 234 220 213 208 207 204 201 198 197 196 195 193 192 192 188 187 190 193 195 193 195 198 199 203 206 209 214 218
227 229 235 239 237 245 235 230 235 239 250 253 248 252 262 252 210 198 205 211 210 205 201 198 197 195 191 190 188 187 187 188 191 194 195 195 195 197 199 204 208 211 214 220
207 226 237 236 243 247 232 136 207 242 238 357 263 249 244 225 226 174 127 196 196 192 187 185 184 183 182 182 181 183 186 188 192 193 194 193 194 197 202 206 210 212 216 224
194 214 232 238 243 249 60 129 202 230 78 38 18 341 229 217 330 22 80 149 157 158 159 158 159 163 168 171 174 182 184 188 190 187 186 186 192 198 202 205 208 212 218 226
227 222 226 232 237 234 55 202 260 15 19 17 25 46 78 87 67 71 88 109 125 135 142 144 144 145 149 158 165 172 178 179 176 175 178 181 186 196 195 198 206 212 220 225
253 286 288 266 279 50 25 8 356 335 333 355 23 62 102 103 92 84 86 97 109 118 128 137 138 133 135 147 156 163 165 164 164 165 169 172 178 187 193 196 204 213 220 236
229 279 267 266 244 5 3 10 7 17 17 38 88 104 116 114 103 95 93 95 101 108 117 124 127 127 128 132 138 142 144 149 152 155 159 165 175 184 189 203 213 224 230 239
303 258 266 270 291 316 45 28 32 54 71 91 99 98 102 108 104 100 97 93 97 104 110 116 120 123 123 124 125 127 132 140 144 148 153 162 175 188 194 204 224 237 244 255
274 274 284 296 328 318 330 20 73 89 89 93 99 96 90 91 94 93 92 92 94 98 104 107 109 112 114 115 114 115 122 132 139 145 152 163 175 182 204 217 225 218 238 235
Height
1497 1496 1490 1486 1485 1486 1486 1487 1488 1486 1488 1490 1490 1491 1494 1499 1501 1503 1505 1507 1509 1511 1513 1515 1518 1521 1523 1526 1529 1532 1535 1538 1541 1543 1546 1549 1552 1554 1556 1557 1557 1559 1560 1561
1494 1491 1485 1484 1486 1486 1487 1488 1486 1486 1488 1489 1489 1490 1491 1496 1499 1501 1503 1505 1507 1510 1513 1515 1518 1520 1523 1526 1528 1531 1534 1538 1541 1543 1546 1549 1551 1553 1555 1556 1557 1558 1560 1561
1488 1482 1483 1485 1485 1486 1484 1484 1484 1486 1487 1487 1489 1489 1489 1493 1497 1499 1501 1503 1505 1508 1512 1514 1517 1520 1523 1526 1529 1532 1534 1537 1540 1543 1546 1548 1550 1552 1554 1555 1556 1558 1559 1560
1483 1480 1483 1483 1481 1482 1483 1479 1482 1485 1488 1484 1487 1490 1483 1486 1492 1495 1498 1501 1503 1507 1511 1514 1516 1519 1522 1526 1529 1532 1535 1537 1540 1543 1546 1548 1550 1552 1554 1555 1556 1557 1558 1559
1480 1479 1480 1481 1479 1479 1480 1480 1481 1482 1483 1484 1483 1487 1477 1481 1486 1489 1493 1497 1501 1505 1509 1512 1516 1519 1522 1526 1529 1531 1534 1537 1540 1542 1545 1547 1550 1552 1553 1554 1555 1556 1558 1558
1474 1475 1476 1475 1476 1478 1480 1482 1483 1482 1480 1490 1481 1485 1480 1475 1478 1480 1487 1494 1498 1503 1507 1511 1514 1518 1521 1525 1528 1531 1533 1536 1539 1542 1544 1546 1548 1550 1552 1553 1555 1556 1557 1558
1476 1472 1472 1475 1477 1478 1479 1483 1489 1491 1490 1486 1478 1483 1476 1468 1472 1476 1482 1489 1495 1500 1504 1508 1512 1516 1520 1523 1527 1530 1532 1535 1538 1541 1543 1545 1547 1548 1550 1552 1554 1555 1557 1557
1477 1475 1468 1469 1471 1472 1474 1476 1489 1497 1491 1479 1479 1479 1468 1468 1473 1477 1481 1486 1492 1497 1502 1506 1510 1514 1518 1522 1525 1528 1531 1534 1537 1539 1541 1544 1545 1548 1550 1550 1553 1553 1555 1556
1469 1471 1463 1465 1466 1467 1472 1471 1466 1476 1477 1482 1472 1469 1466 1469 1472 1476 1479 1484 1489 1494 1499 1504 1508 1512 1516 1519 1523 1526 1529 1532 1535 1538 1540 1542 1544 1546 1548 1548 1550 1552 1552 1553
1461 1470 1463 1465 1467 1468 1465 1463 1472 1476 1489 1488 1476 1470 1465 1466 1468 1472 1476 1481 1486 1491 1496 1501 1505 1509 1513 1517 1521 1525 1528 1531 1534 1536 1539 1541 1542 1544 1545 1547 1548 1549 1550 1551
1460 1468 1465 1465 1467 1463 1469 1469 1467 1467 1471 1481 1483 1471 1452 1457 1461 1466 1471 1477 1482 1487 1492 1497 1502 1506 1511 1515 1519 1522 1526 1529 1531 1534 1537 1539 1541 1542 1543 1545 1546 1547 1548 1549
1459 1461 1464 1460 1456 1458 1458 1460 1463 1474 1474 1472 1473 1467 1451 1454 1458 1463 1468 1474 1479 1484 1489 1494 1499 1504 1508 1512 1516 1519 1523 1526 1529 1532 1534 1536 1538 1540 1542 1543 1544 1545 1546 1547
1460 1465 1471 1468 1467 1463 1461 1458 1458 1460 1464 1467 1470 1464 1452 1455 1458 1462 1466 1471 1476 1482 1486 1491 1496 1500 1504 1508 1512 1516 1519 1523 1526 1529 1531 1533 1535 1537 1539 1541 1542 1543 1544 1545
1462 1462 1464 1466 1459 1453 1458 1457 1456 1460 1464 1462 1460 1455 1451 1453 1456 1460 1464 1469 1474 1479 1483 1488 1492 1496 1500 1505 1508 1512 1516 1519 1523 1525 1528 1530 1532 1534 1536 1538 1539 1540 1541 1542
1461 1460 1456 1451 1447 1448 1450 1451 1453 1456 1453 1455 1451 1448 1446 1448 1452 1457 1461 1466 1470 1475 1479 1483 1488 1492 1496 1500 1504 1508 1512 1515 1518 1521 1524 1527 1529 1531 1533 1534 1536 1537 1538 1540
1462 1461 1456 1454 1449 1448 1450 1447 1448 1449 1448 1448 1447 1446 1442 1447 1451 1454 1458 1462 1466 1470 1474 1479 1483 1487 1491 1495 1499 1503 1507 1510 1514 1517 1520 1523 1525 1527 1529 1531 1533 1534 1535 1537
1459 1462 1462 1457 1449 1451 1454 1444 1443 1443 1441 1443 1446 1443 1442 1446 1449 1452 1455 1458 1461 1465 1469 1473 1478 1482 1485 1490 1494 1498 1502 1506 1509 1513 1516 1518 1521 1523 1525 1528 1529 1531 1532 1533
1460 1461 1460 1455 1458 1467 1442 1433 1434 1437 1437 1437 1439 1439 1442 1446 1448 1451 1453 1455 1457 1461 1465 1469 1473 1477 1481 1485 1490 1494 1498 1502 1505 1508 1511 1514 1517 1519 1521 1523 1525 1526 1528 1529
1458 1459 1457 1456 1457 1449 1439 1436 1436 1438 1439 1436 1438 1440 1443 1445 1446 1448 1450 1452 1454 1457 1460 1464 1468 1473 1477 1481 1485 1489 1494 1497 1500 1504 1507 1510 1512 1515 1517 1519 1521 1522 1523 1524
1457 1457 1456 1454 1458 1456 1439 1435 1438 1440 1443 1439 1440 1441 1443 1443 1441 1443 1449 1450 1452 1454 1457 1461 1465 1469 1472 1476 1480 1484 1488 1492 1496 1499 1502 1505 1508 1510 1513 1515 1516 1518 1519 1520
1455 1456 1454 1451 1452 1441 1435 1438 1439 1447 1446 1444 1443 1443 1444 1444 1445 1448 1448 1449 1450 1452 1454 1457 1461 1464 1468 1472 1476 1480 1484 1488 1491 1495 1498 1501 1503 1506 1508 1510 1512 1513 1514 1515
1448 1449 1450 1448 1452 1447 1439 1438 1440 1444 1445 1445 1445 1445 1445 1447 1447 1447 1448 1448 1449 1451 1452 1455 1458 1461 1465 1469 1473 1477 1480 1484 1487 1491 1494 1496 1499 1502 1504 1506 1507 1508 1509 1510
1446 1445 1443 1443 1445 1444 1443 1444 1446 1446 1446 1446 1446 1446 1447 1447 1448 1448 1449 1449 1450 1451 1452 1455 1457 1459 1463 1467 1471 1474 1478 1481 1484 1487 1490 1493 1495 1497 1499 1501 1502 1503 1504 1505
1445 1447 1446 1445 1441 1443 1445 1445 1446 1446 1446 1446 1447 1447 1447 1448 1449 1450 1450 1450 1451 1452 1453 1455 1457 1459 1462 1466 1469 1472 1476 1478 1481 1484 1487 1489 1491 1493 1495 1496 1498 1499 1500 1500
1445 1446 1446 1444 1443 1444 1445 1446 1446 1446 1447 1447 1448 1448 1449 1449 1450 1451 1451 1452 1452 1452 1454 1455 1457 1460 1462 1465 1468 1471 1474 1477 1479 1482 1484 1487 1489 1491 1492 1492 1493 1494 1495 1495
1446 1447 1446 1444 1445 1446 1447 1447 1447 1447 1448 1449 1449 1450 1451 1451 1452 1452 1452 1453 1454 1454 1455 1456 1458 1461 1463 1465 1467 1471 1473 1476 1479 1481 1482 1485 1487 1488 1489 1489 1489 1489 1490 1489